Location: Tamazert
(32.6352°N, 5.2072°W)
Time: 02:58:42
(UTC+00:00)

Vanguard 2 Rocket - Pass Details

Date: 11 October 2022
Orbit: 555 x 3321 km, 32.9° (Epoch: 05 December)

Event Time Altitude Azimuth Distance (km) Brightness Sun altitude
Rises 18:48:57 0° 228° (SW) 6,915 12.2 -12.6°
Reaches altitude 10° 18:53:26 10° 224° (SW) 6,083 11.7 -13.5°
Maximum altitude 19:12:58 59° 151° (SSE) 3,559 9.6 -17.7°
Enters shadow 19:24:53 25° 85° (E) 4,445 9.7 -20.2°
Drops below altitude 10° 19:29:22 10° 78° (ENE) 5,235 - -21.1°
Sets 19:32:51 0° 75° (ENE) 5,945 - -21.8°
